Location: �perlecques
(50.8057°N, 2.1521°E)
Time: 21:09:28
(UTC+00:00)

Tiros 1 - Pass Details

Date: 10 August 2021
Orbit: 630 x 663 km, 48.4° (Epoch: 28 September)

Event Time Altitude Azimuth Distance (km) Brightness Sun altitude
Rises 15:07:11 0° 233° (SW) 2,988 11.5 38.0°
Reaches altitude 10° 15:09:38 10° 226° (SW) 2,077 10.9 37.7°
Maximum altitude 15:14:07 40° 157° (SSE) 967 8.5 37.0°
Drops below altitude 10° 15:18:36 10° 88° (E) 2,074 9.4 36.4°
Sets 15:21:02 0° 81° (E) 2,984 10.1 36.0°
